Regional Weather Roundup
Issued by NWS

Home | Current Version | Previous Version | Graphics & Text | Print | Product List | Glossary On
Versions: 1 2 3 4 5 6 7 8 9 10 11 12 13 14 15 16 17 18 19 20 21 22 23 24 25 26 27 28 29 30 31 32 33 34 35 36 37 38 39 40 41 42 43 44 45 46 47 48 49 50
944
ASUS45 KBOU 122010
RWRCO

WEATHER ROUNDUP FOR COLORADO
NATIONAL WEATHER SERVICE DENVER/BOULDER CO
100 PM MST TUE DEC 12 2017

NOTE: "FAIR" INDICATES FEW OR NO CLOUDS BELOW 12000 FEET WITH NO
SIGNIFICANT WEATHER AND/OR OBSTRUCTIONS TO VISIBILITY.

COZ001>005-013-030-031-122100-
...NORTHWEST COLORADO...

CITY           SKY/WX    TMP DP  RH WIND       PRES   REMARKS
CRAIG          FAIR      38  18  44 CALM      30.45F
HAYDEN         FAIR      42  21  43 E6        30.46F
MEEKER         FAIR      51  12  21 CALM      30.43F
RABBIT EARS PA FAIR      34   9  35 W10G24    30.52F WCI  26
STEAMBOAT SPGS FAIR      39  19  44 CALM      30.46F
WALDEN         FAIR      41  14  33 S9        30.46F
$$

COZ006>008-011-122100-
...WEST CENTRAL VALLEYS...

CITY           SKY/WX    TMP DP  RH WIND       PRES   REMARKS
GRAND JUNCTION FAIR      50  13  22 CALM      30.43F
MONTROSE       FAIR      47  11  23 N6        30.45F
EAGLE          FAIR      35  13  40 SW3       30.51F
RIFLE          FAIR      49  13  23 CALM      30.44F
DELTA          FAIR      49   9  19 CALM      30.44F
NUCLA          FAIR      46   5  18 CALM      30.47F
$$

COZ017>023-064>068-122100-
...SOUTHWEST COLORADO...

CITY           SKY/WX    TMP DP  RH WIND       PRES   REMARKS
DURANGO        FAIR      51   5  15 VRB5      30.40F
CORTEZ         FAIR      48   3  15 SW10      30.43F
PAGOSA SPRINGS FAIR      52  -3  10 S3        30.42F
TELLURIDE      FAIR      53   2  12 W12       30.49F
WOLF CREEK PAS FAIR      39   3  22 W7        30.61F
$$

COZ009-010-012-014-032>034-037-058>063-122100-
...CENTRAL COLORADO...

CITY           SKY/WX    TMP DP  RH WIND       PRES   REMARKS
ASPEN          FAIR      48  11  22 NW5       30.45F
BUENA VISTA    FAIR      55   6  14 CALM      30.38F
COPPER MTN     NOT AVBL
BERTHOUD PASS  FAIR      23  12  63 N14G28    30.53F WCI  11
COTTONWOOD PAS FAIR      55   3  12 E3        30.46F
GUNNISON       FAIR      38   8  29 CALM      30.48F
KREMMLING      FAIR      34  18  51 CALM      30.52F
LEADVILLE      FAIR      47   6  18 N8        30.46F
MONARCH PASS   FAIR      36   5  27 SW18      30.65F
SALIDA         FAIR      56   4  12 NW5       30.44F
SUNLIGHT       FAIR      36   9  32 W8        30.58F
WILKERSON PASS FAIR      41   9  26 W7        30.52F
$$

COZ069>075-122100-
...SAN LUIS VALLEY/SANGRE DE CRISTO MOUNTAINS...

CITY           SKY/WX    TMP DP  RH WIND       PRES   REMARKS
ALAMOSA        FAIR      47   4  17 VRB3      30.42F
DEL NORTE      FAIR      45   4  18 E6        30.44F
LA VETA PASS   FAIR      43   7  22 SW15        N/A
SAGUACHE       FAIR      46   5  18 SE6       30.43F
$$

COZ035-036-038>040-122100-
...NORTHERN COLORADO FRONT RANGE...

CITY           SKY/WX    TMP DP  RH WIND       PRES   REMARKS
DENVER INTL AP FAIR      67  12  12 SW6       30.21F
DMNS CITY PARK NOT AVBL
AURORA         MOSUNNY   66  12  12 S5        30.23F
FRONT RANGE AP MOSUNNY   66  14  13 S6        30.23F
ERIE MUNI ARPT FAIR      63  15  15 N8        30.26F
BOULDER MUN AP FAIR      63  19  19 N3        30.21F
CENTENNIAL     FAIR      65  17  15 CALM      30.23F
BROOMFIELD     MOSUNNY   64  14  14 S6        30.24F
FORT COLLINS   FAIR      57  17  21 VRB3      30.22F
LONGMONT       FAIR      64  15  15 CALM      30.23F
$$

COZ041-046-047-076>085-087-088-122100-
...PIKES PEAK/PALMER DIVIDE AND SOUTHERN FOOTHILLS...

CITY           SKY/WX    TMP DP  RH WIND       PRES   REMARKS
COLO. SPRINGS  FAIR      59  10  14 S6        30.29F
A. F. ACADEMY  FAIR      59   5  11 S7        30.28F
SCHRIEVER AFB  FAIR      58   6  12 S3        30.28F
CHEYENNE MTN   FAIR      57   7  13 SE8       30.25F
ELLICOTT         N/A    N/A N/A N/A SW9       30.27F
FALCON         FAIR      60   5  11 SW9       30.31F
FORT CARSON    FAIR      59   7  12 SE6       30.26F
LIMON          FAIR      64  12  13 NW13      30.24F
MONUMENT HILL  FAIR      59  12  15 CALM      30.31F
CANON CITY     FAIR      64  14  14 SE7       30.24F
WALSENBURG     FAIR      68  10  10 W3        30.27F
TRINIDAD       FAIR      62   7  11 S6        30.28F
$$

COZ042>045-048>051-090-091-122100-
...NORTHEAST COLORADO...

CITY           SKY/WX    TMP DP  RH WIND       PRES   REMARKS
GREELEY ARPT   FAIR      56  19  23 W6        30.21F
AKRON          FAIR     N/A N/A N/A MISG      30.19F
BURLINGTON     FAIR      64  18  17 NW13G21   30.20F
WRAY           FAIR      64  14  14 NW8G17    30.17F
YUMA           FAIR      61  14  16 W15       30.18F
STERLING       FAIR      66  18  15 W10       30.15F
HOLYOKE        FAIR      66  16  14 NW12G20   30.16F
FORT MORGAN    FAIR     N/A N/A N/A W8        30.20F
$$

COZ086-089-092>099-122100-
...SOUTHEAST COLORADO...

CITY           SKY/WX    TMP DP  RH WIND       PRES   REMARKS
PUEBLO         FAIR      63  10  12 VRB3      30.24F
LA JUNTA       FAIR      61  11  14 SW8       30.24F
LAMAR          FAIR      60   9  13 W13       30.21F
SPRINGFIELD      N/A     65  15  14 NW10      30.23F
$$




USA.gov is the U.S. government's official web portal to all federal, state and local government web resources and services.